THORAD DELTA 1 DEB, 14475

Orbit data source: Space-Track

THORAD DELTA 1 DEB, 14475 is space debris in SSO originally from a launch on Fri, 15 Nov 1974 UTC launched from the Air Force Western Test Range (AFWTR). Debris objects in space refer to the collection of defunct objects orbiting the Earth. Examples of debris include non-operational satellites, rocket bodies, and fragments generated from explosions, collisions, or faulty payload assembly.

Loading next visibility...
Identifier
14475, 1974-089ER
Orbit
SSO
Country
Flag of USUS
Related business
Manufacturer
Unknown
Mission
Spacecraft
Bus & Motor
Unknown
Mass
Unknown
Launch date (UTC)
1974-11-15 (51 years ago)
Launch vehicle
Unknown
Launch site
Air Force Western Test Range (AFWTR)
Object type
Payload
Rocket body
Debris
Shape & HBR
Unknown shape, 0.1 m
Radar Cross Section
Small (<0.1 m²)

Expand to show TLE details & history
Last TLE update: 10 hours ago

TLE from 10 hours ago
0 THORAD DELTA 1 DEB
1 14475U 74089ER  26035.39759050  .00000285  00000-0  18183-2 0  9991
2 14475 101.0575 195.3529 0124733  95.9946 296.2378 12.60103779965281
Epoch: 2026-02-04T09:32Z
TLE epoch observation values (Epoch: 2026-02-04T09:32:31.819Z)
Latitude
30.35676°
Longitude
-88.88389°
Altitude
1,384.045 km
Speed
7.189 km/s
True Right ascension
12h 35m 15s
True Declination
30° 13' 09"
Sunlit
Object was in full shadow at epoch
Visualization orbit readout
Latitude
Unknown
Longitude
Unknown
Altitude
Unknown
Speed
Unknown
Apparent Right ascension
Unknown
Apparent Declination
Unknown
Sunlit
N/A
Visualization observer readout
Local Sidereal Time
21:26:06
Azimuth
Unknown
Elevation
Unknown
Doppler factor
Unknown
Orbital elements
Apogee altitude
1,517.278 km
Perigee altitude
1,322.741 km
Semi-major axis
7,798.146 km
Eccentricity
0.01247
Inclination
101.0575°
RAAN
195.3529°
Arg. of periapsis
95.9946°
True anomaly
294.94695°
Mean anomaly
296.2378°
Eccentric anomaly
295.59325°
Mean motion
3.15178 °/min
Orbital period
114.22 mins
BSTAR
0.0018183
Loading maneuver chart data...
Computing Atmospheric mass density...

Documentation

Showing up to 5 results
|